This demonstration page uses our WeatherBlox Daily Observations layout. Learn more.

Left ArrowRight Arrow

38.80484, -77.04692

Hourly Observations for May 14, 2019

Temp ( °F °C ) Dew Point ( °F °C ) Humidity (%) Winds ( mph kmh ) Pressure ( in mb ) Visibility ( mi km ) Precip ( " mm )
12:48 am 00:48 Mostly Cloudy 54 12 50 10 88 88 N N/A 29.85 1011 10 16 N/A
12:52 am 00:52 Mostly Cloudy 53 11.7 50 10 89 89 N N/A 29.85 1011 10 16 N/A
1:52 am 01:52 Mostly Cloudy 53 11.7 50 10 89 89 WSW 3 6 29.83 1010 10 16 N/A
2:52 am 02:52 Partly Cloudy 53 11.7 49 9.4 86 86 N N/A 29.82 1010 9 14 N/A
3:52 am 03:52 Mostly Clear 52 11.1 48 8.9 86 86 N 5 7 29.82 1010 10 16 N/A
4:52 am 04:52 Mostly Cloudy 53 11.7 48 8.9 83 83 N 6 9 29.83 1010 10 16 N/A
5:52 am 05:52 Partly Cloudy 53 11.7 46 7.8 77 77 NNW 9 15 29.84 1011 10 16 N/A
6:52 am 06:52 Partly Cloudy 54 12.2 45 7.2 72 72 NNW 9 15 29.86 1011 10 16 N/A
7:52 am 07:52 Partly Cloudy 57 13.9 46 7.8 67 67 NW 6 9 29.87 1012 10 16 N/A
8:52 am 08:52 Partly Cloudy 60 15.6 44 6.7 56 56 WNW 13 20 29.87 1012 10 16 N/A
9:52 am 09:52 Partly Cloudy 59 15 46 7.8 62 62 NNW 15 24 29.89 1012 10 16 N/A
10:52 am 10:52 Mostly Cloudy 59 15 43 6.1 56 56 WNW 13 20 29.90 1013 10 16 N/A
11:52 am 11:52 Mostly Cloudy 60 15.6 38 3.3 44 44 NW 21 33 29.90 1013 10 16 N/A
12:52 pm 12:52 Cloudy 59 15 38 3.3 46 46 NW 16 26 29.90 1012 10 16 N/A
1:52 pm 13:52 Mostly Cloudy 61 16.1 40 4.4 46 46 W 15 24 29.88 1012 10 16 N/A
2:52 pm 14:52 Mostly Cloudy 61 16.1 39 3.9 44 44 NW 13 20 29.88 1012 10 16 N/A
3:52 pm 15:52 Mostly Cloudy 61 16.1 39 3.9 44 44 WNW 15 24 29.87 1012 10 16 N/A
4:52 pm 16:52 Mostly Cloudy 61 16.1 39 3.9 44 44 NW 14 22 29.87 1012 10 16 N/A
5:52 pm 17:52 Mostly Cloudy 61 16.1 41 5 48 48 NW 13 20 29.88 1012 10 16 N/A
6:52 pm 18:52 Mostly Cloudy 60 15.6 40 4.4 47 47 NW 20 31 29.90 1012 10 16 N/A
7:52 pm 19:52 Partly Cloudy 58 14.4 41 5 53 53 WNW 12 19 29.91 1013 10 16 N/A
8:52 pm 20:52 Partly Cloudy 57 13.9 41 5 55 55 WNW 12 19 29.93 1013 10 16 N/A
9:52 pm 21:52 Mostly Clear 56 13.3 41 5 57 57 NW 12 19 29.94 1014 10 16 N/A
10:52 pm 22:52 Clear 55 12.8 41 5 59 59 NW 14 22 29.95 1014 10 16 N/A
11:52 pm 23:52 Mostly Clear 54 12.2 41 5 62 62 WNW 9 15 29.96 1015 10 16 N/A

Powered by AerisWeather